Domov               UVHVVR             MKGP            O straneh              
ZDRAVSTVENO VARSTVO RASTLIN
  MREŽA AGROMET. POSTAJ
 ► PROGNOSTIČNA OBVESTILA
AGROMETEOROLOŠKI PODATKI -
ARSO
OBVLADOVANJE TVEGANJ ZARADI
NEUGODNIH VREMENSKIH RAZMER
  ► NARAVNE NESREČE
  ► SUŠA/MOČA
  ► NAMAKANJE
  ► ŽLED (gozdarstvo)
KARTOGRAFSKI PRIKAZI
SPLETNE POVEZAVE
PROJEKTI IN PUBLIKACIJE

AGROMETEOROLOŠKA MREŽA: VREMENSKE POSTAJE IN FENOLOŠKA OPAZOVANJA

Pregled podatkov za lokacijo Čelje, meteorološka postaja 37797

Pregled senzorjev na lokaciji

ID Ime Zadnja
vrednost
Datum
zadnje
spremembe
Tip
senzorja
1815 Omočenost lista (U) 0 U 21.5.2018 11:30 A730WET
1812 Padavine (mm) 0 mm 21.5.2018 11:30 Rain-O-Matic
1814 Relativna vlaga 2 m (% RH) 46,06 % RH 21.5.2018 11:30 50YA
1813 Temperatura 2 m (°C) 22,39 °C 21.5.2018 11:30 50YA

Pregled podatkov zadnjih 24 ur

Zap.
št.
Datum in čas Čelje
Omočenost
lista
Padavine Relativna
vlaga
2
m
Temperatura
2
m
1 21.5.2018 12:30
2 21.5.2018 12:00
3 21.5.2018 11:30
4 21.5.2018 11:00
5 21.5.2018 10:30 0 0 46,1 22,4
6 21.5.2018 10:00 0 0 44,5 22,5
7 21.5.2018 09:30 0 0 45,8 22
8 21.5.2018 09:00 0 0 56,9 19,7
9 21.5.2018 08:30 0 0 57,5 19,3
10 21.5.2018 08:00 0 0 56,1 19,5
11 21.5.2018 07:30 0 0 59,8 18,2
12 21.5.2018 07:00 0 0 61,9 16,9
13 21.5.2018 06:30 0 0 64,8 15,4
14 21.5.2018 06:00 0 0 67,6 13,9
15 21.5.2018 05:30 0 0 70,8 13
16 21.5.2018 05:00 0 0 71,4 12,8
17 21.5.2018 04:30 0 0 70,5 12,9
18 21.5.2018 04:00 0 0 69,5 13,2
19 21.5.2018 03:30 0 0 70,4 13,3
20 21.5.2018 03:00 0 0 71,9 13,2
21 21.5.2018 02:30 0 0 71,7 13,3
22 21.5.2018 02:00 0 0 68,5 13,9
23 21.5.2018 01:30 0 0 68,3 13,9
24 21.5.2018 01:00 0 0 67,5 14,3
25 21.5.2018 00:30 0 0 67,6 14,2
26 21.5.2018 00:00 0 0 71,5 13,8
27 20.5.2018 23:30 0 0 73,2 13,6
28 20.5.2018 23:00 0 0 72,1 14,1
29 20.5.2018 22:30 0 0 71,4 14,5
30 20.5.2018 22:00 0 0 69,4 14,6
31 20.5.2018 21:30 0 0 65,3 14,8
32 20.5.2018 21:00 0 0 62,5 14,9
33 20.5.2018 20:30 0 0 61,8 15,1
34 20.5.2018 20:00 0 0 61,6 15,2
35 20.5.2018 19:30 0 0 60,2 15,8
36 20.5.2018 19:00 0 0 58,3 16,7
37 20.5.2018 18:30 0 0 58,4 17,7
38 20.5.2018 18:00 0 0 57,4 18,4
39 20.5.2018 17:30 0 0 57,2 18,5
40 20.5.2018 17:00 0 0 56,8 18,4
41 20.5.2018 16:30 0 0 49,7 19,9
42 20.5.2018 16:00 0 0 49,4 21
43 20.5.2018 15:30 0 0 52,1 20,5
44 20.5.2018 15:00 0 0 53,6 20,3
45 20.5.2018 14:30 0 0 50,5 21,2
46 20.5.2018 14:00 0 0 48,5 21,6
47 20.5.2018 13:30 0 0 52 20,1
48 20.5.2018 13:00 0 0 47,5 22,1
© 2011 Ministrstvo za kmetijstvo, gozdarstvo in prehrano. Vse pravice pridržane.